Printer-friendly version

IAU Minor Planet Center

Minor Planet Center

MPEC 2002-V49 : 2002 UM11 = 2001 MT7

The following Minor Planet Electronic Circular may be linked-to from your own Web pages, but must not otherwise be redistributed electronically.


Read MPEC 2002-V48 Read MPEC 2002-V50


M.P.E.C. 2002-V49                                Issued 2002 Nov.  9, 16:59 UT

     The Minor Planet Electronic Circulars contain information on unusual
         minor planets and routine data on comets.  They are published
   on behalf of Commission 20 of the International Astronomical Union by the
          Minor Planet Center, Smithsonian Astrophysical Observatory,
                          Cambridge, MA 02138, U.S.A.

             Prepared using the Tamkin Foundation Computer Network

                              MPC@CFA.HARVARD.EDU
          URL http://cfa-www.harvard.edu/iau/mpc.html  ISSN 1523-6714

                             2002 UM11 = 2001 MT7

                           Revision to MPEC 2002-U52

Additional Observations:
     K02U11M  C2002 11 08.90419 22 31 27.11 +32 11 32.7                      118
     K02U11M  C2002 11 08.90792 22 31 27.38 +32 11 21.9          17.3 R      118
     K02U11M  C2002 11 08.91117 22 31 27.64 +32 11 12.4                      118

Observer details:
118 Modra.  Observers A. Galad, L. Kornos.  0.6-m f/5.5 reflector + CCD.

Orbital elements:
2002 UM11 = 2001 MT7
Epoch 2002 Nov. 22.0 TT = JDT 2452600.5                 MPC
M 326.84010              (2000.0)            P               Q
n   0.36165188     Peri.  228.99291     -0.00049962     -0.86816976
a   1.9510822      Node   229.09417     +0.99402985     -0.05457754
e   0.3867394      Incl.   41.04283     -0.10910730     -0.49325709
P   2.73           H   16.2           G   0.15           U   4
Residuals in seconds of arc
010623 644  0.1+  0.5-    021031 704  0.3+  0.2-    021101 941  0.2+  0.8+
010623 644  0.5-  0.5-    021031 704  0.2+  0.2-    021101 941  0.3-  0.4+
010623 644  0.2-  0.4-    021031 704  0.3-  0.1+    021101 176  0.3-  0.3+
010623 046  1.0+  1.2-    021031 704  0.2+  0.3-    021101 176  0.1-  0.2+
010623 046  0.3+  1.7-    021031 704  0.3-  0.1+    021101 176  0.0   0.2+
010623 557  0.7+  0.3+    021031 926  0.1+  0.0     021101 176  0.1+  0.2+
010623 557  0.6-  0.2+    021031 854  0.1-  0.2+    021101 176  0.1+  0.2+
010624 557  0.3+  0.1+    021031 926  0.4+  1.1-    021103 704  0.7-  1.0-
010624 673  0.0   1.7+    021031 854  0.0   0.0     021103 704  0.1+  1.0-
010624 673  0.2-  1.6+    021031 854  0.2-  0.4+    021103 704  0.4-  0.5-
010624 673  0.8+  1.7+    021031 926  0.0   0.0     021103 704  0.6-  0.0
010624 046  0.3-  0.1+    021031 926  0.2-  0.5+    021104 649  0.0   0.1+
010624 557  0.1-  0.5+    021031 704  0.4+  0.2-    021104 649  0.0   0.1+
010624 046  0.9-  0.8-    021031 704  0.2-  0.1-    021104 649  0.2-  0.0
010624 046  0.3+  0.5-    021031 704  0.0   0.1-    021105 176  0.2-  0.0
010624 557  0.2-  0.4-    021031 704  0.2+  0.1-    021105 176  0.3-  0.0
010624 046  0.4-  0.7+    021031 448  0.3+  0.1+    021105 176  0.3-  0.1+
010624 859 (3.3+  0.9-)   021031 448  0.3+  0.0     021105 176  0.4-  0.1+
010624 859 (2.6-  0.1-)   021031 448  0.1+  0.2+    021105 176  0.5-  0.2+
010624 859 (2.5-  1.1-)   021101 704  0.8-  0.5-    021107 940  0.2-  0.0
010625 644  0.4-  0.5-    021101 704  0.4-  0.2-    021107 940  0.3-  0.2+
010625 644  0.1+  0.0     021101 704  1.0-  0.2-    021107 940  0.2+  0.1+
010625 644  0.1+  0.2-    021101 704  0.3-  0.3-    021107 940  0.3+  0.0
021030 704  0.2+  0.3-    021101 704  0.2-  0.1-    021107 940  0.5+  0.1-
021030 704  0.1+  0.3-    021101 170  0.6+  0.1+    021107 940  0.5+  0.1-
021030 704  0.1-  0.1+    021101 170  0.9+  0.4-    021107 940  0.2-  1.0-
021030 704  0.2-  0.5+    021101 170  0.5+  0.4-    021107 940  1.4+  0.5+
021030 704  0.0   0.1+    021101 170  0.7+  0.2-    021107 940  0.9+  0.7+
021031 118  0.2+  0.1-    021101 170  0.4+  0.2-    021107 940  0.3-  1.2-
021031 118  0.4+  0.1+    021101 170  0.1-  0.3+    021108 118  0.2-  0.2+
021031 118  0.3+  0.2-    021101 941  1.0-  1.6+    021108 118  0.3-  0.3+
021031 704  0.1+  0.1-    021101 941  0.1+  1.2+    021108 118  0.1-  0.3+

Ephemeris:
2002 UM11                a,e,i = 1.95, 0.39, 41                  q = 1.1965
Date    TT    R. A. (2000) Decl.     Delta      r     Elong.  Phase     V
2002 11 02    22 23.80   +37 38.8    0.800    1.568   121.7    32.6    18.1
2002 11 12    22 35.67   +29 41.4    0.782    1.517   117.4    35.4    18.0
2002 11 22    22 52.02   +21 37.5    0.785    1.468   111.3    38.8    18.1
2002 12 02    23 11.73   +14 01.9    0.807    1.420   104.3    42.3    18.1
2002 12 12    23 33.94   +07 19.4    0.846    1.375    97.1    45.3    18.3
2002 12 22    23 57.92   +01 40.6    0.895    1.333    90.3    47.5    18.4
2003 01 01    00 23.11   -02 55.5    0.951    1.295    84.1    49.0    18.5
2003 01 11    00 49.22   -06 35.4    1.009    1.263    78.6    49.8    18.6
2003 01 21    01 16.02   -09 28.4    1.066    1.235    74.0    50.0    18.7
2003 01 31    01 43.43   -11 43.0    1.118    1.215    70.2    49.7    18.7
2003 02 10    02 11.51   -13 26.5    1.165    1.202    67.3    49.3    18.8
2003 02 20    02 40.36   -14 44.8    1.204    1.197    65.3    48.6    18.8
2003 03 02    03 10.13   -15 41.7    1.235    1.199    64.1    48.0    18.9
2003 03 12    03 41.05   -16 20.2    1.260    1.210    63.6    47.4    18.9
2003 03 22    04 13.27   -16 42.6    1.280    1.228    63.8    46.7    19.0
2003 04 01    04 46.90   -16 50.1    1.298    1.253    64.6    46.1    19.0
2003 04 11    05 21.97   -16 44.2    1.317    1.284    65.6    45.3    19.1
2003 04 21    05 58.26   -16 26.8    1.340    1.320    66.7    44.4    19.1
2003 05 01    06 35.42   -15 59.8    1.372    1.360    67.8    43.3    19.2
2003 05 11    07 12.95   -15 26.6    1.415    1.405    68.5    42.0    19.3
2003 05 21    07 50.19   -14 50.7    1.471    1.451    68.7    40.5    19.4
2003 05 31    08 26.58   -14 15.8    1.541    1.500    68.4    38.9    19.6
2003 06 10    09 01.63   -13 45.5    1.627    1.551    67.3    37.2    19.7
2003 06 20    09 35.00   -13 22.1    1.725    1.602    65.7    35.3    19.9
2003 06 30    10 06.56   -13 06.8    1.835    1.653    63.4    33.4    20.0
2003 07 10    10 36.32   -13 00.4    1.955    1.705    60.6    31.3    20.2

A. U. Tomatic                (C) Copyright 2002 MPC           M.P.E.C. 2002-V49

Read MPEC 2002-V48 Read MPEC 2002-V50


Our Web policy. Index to the CBAT/MPC/ICQ pages.


Valid HTML 4.01!